Theta_e
316 318 316 316 315 317 317 318 319 317 320 320 319 318 318 318 318 318 319 319 319 318 317 315 314 312 312
316 314 315 315 315 314 314 314 316 315 316 316 316 316 316 316 315 315 315 316 315 315 313 311 310 309 309
312 312 312 311 312 311 311 311 310 310 314 314 314 314 314 314 314 313 313 313 312 310 309 307 307 307 307
312 310 310 307 308 308 307 305 306 306 308 309 310 310 310 310 310 308 309 310 310 309 307 305 304 304 305
309 308 306 302 304 304 304 303 303 303 301 302 302 301 301 305 305 307 308 309 308 307 305 304 303 303 304
307 307 305 304 302 302 300 299 298 298 298 297 297 298 300 301 304 306 307 307 306 304 303 302 302 302 302
303 302 302 302 301 299 298 297 298 298 298 295 295 295 296 297 302 304 306 305 305 303 302 301 300 301 301
300 299 300 300 300 300 299 297 296 296 298 292 292 291 293 295 298 302 304 305 303 301 300 299 299 299 300
300 300 300 301 301 297 292 290 291 293 295 293 291 289 288 287 288 297 301 302 301 300 299 299 298 299 298
295 296 297 297 298 297 294 289 287 288 291 291 287 288 289 286 284 288 294 299 299 298 298 298 298 297 296
289 290 291 292 292 293 293 290 287 289 292 290 286 286 286 287 284 286 288 290 291 292 296 296 295 296 294
286 286 285 286 288 288 289 289 291 289 293 290 286 287 286 285 286 285 285 286 287 287 287 291 293 295 297
284 285 286 287 286 286 286 288 286 287 289 287 287 286 286 286 286 285 286 286 286 286 287 287 288 290 291
283 284 285 285 285 285 285 286 285 286 286 286 286 286 286 287 287 286 286 286 285 285 286 286 289 291 292
280 281 284 284 284 285 285 285 284 285 286 286 285 286 287 286 285 287 286 285 285 285 285 285 286 289 291
282 283 282 283 283 284 285 285 284 285 285 286 285 284 284 285 289 286 286 286 285 285 285 285 285 288 289
282 282 282 282 283 283 283 284 284 285 285 286 284 283 281 281 284 290 286 285 284 284 284 284 285 286 288
Wind_Speed
4 7 5 7 4 4 5 6 5 13 14 14 14 13 12 12 12 12 12 14 16 16 14 14 14 15 18
8 6 4 2 4 5 4 3 4 4 10 11 12 11 11 11 11 13 13 16 15 14 12 10 12 15 17
4 2 3 3 3 1 2 2 3 4 7 7 7 9 9 10 11 13 14 15 13 11 10 10 12 15 17
4 3 2 2 1 2 3 2 1 2 6 8 6 6 8 12 11 11 12 13 13 12 10 9 12 15 17
3 3 3 2 3 2 3 2 1 1 1 2 1 2 2 5 7 8 10 12 12 10 9 10 13 14 17
3 3 4 3 2 2 2 2 1 1 2 3 0 2 3 2 7 8 8 9 11 10 10 10 12 14 17
4 3 3 2 2 2 1 2 1 1 1 3 1 3 3 4 8 9 8 10 11 9 9 9 11 14 16
6 4 4 3 2 2 2 1 1 2 1 3 1 2 3 4 8 10 10 10 9 9 9 10 10 13 16
10 10 9 8 5 3 2 2 2 2 4 3 2 3 2 3 3 9 10 8 8 9 9 8 10 12 10
4 4 5 5 7 3 2 2 2 2 2 4 2 2 3 1 2 3 2 7 9 10 10 9 10 4 5
4 3 2 3 3 3 2 2 2 4 2 2 1 1 2 2 2 2 3 3 3 4 9 8 9 8 5
4 3 3 3 4 3 2 2 3 4 3 3 2 3 2 1 3 1 3 2 2 2 2 6 8 12 12
4 3 4 4 4 4 3 2 3 3 3 3 3 2 2 2 2 2 2 2 4 3 2 2 1 2 3
3 1 1 3 5 3 3 5 2 3 2 3 4 4 4 5 3 4 4 3 1 2 2 1 2 3 5
2 3 3 2 3 2 3 4 3 2 3 2 3 4 5 5 4 6 4 3 3 2 3 2 3 4 4
2 3 3 4 5 3 3 3 5 4 4 2 1 1 1 4 13 7 4 4 3 4 2 3 3 3 3
4 4 5 5 6 4 5 4 4 4 5 3 3 3 4 6 2 14 6 4 3 3 4 3 2 2 3
Wind_Direction
191 223 191 162 163 212 184 193 203 223 233 234 241 245 248 255 259 259 256 250 252 248 256 266 279 289 292
209 213 192 228 184 190 210 207 214 221 245 254 249 248 254 259 256 255 252 250 242 239 248 260 277 287 291
188 155 168 185 195 147 204 207 200 216 249 249 256 256 257 259 262 261 255 241 218 215 225 254 274 283 288
156 158 166 117 131 196 248 193 250 193 231 234 249 266 281 284 280 277 257 221 210 206 221 248 271 283 289
138 138 158 166 187 166 194 135 214 248 313 300 316 285 269 296 291 292 235 209 200 205 226 254 270 285 292
153 161 157 130 136 155 156 93 313 56 25 298 65 286 272 264 282 289 222 194 193 207 228 254 278 288 294
114 101 102 78 98 109 103 115 191 208 156 280 53 304 291 279 277 263 219 205 202 215 238 258 276 289 300
67 71 75 86 83 103 116 138 57 229 194 249 80 272 316 289 280 264 244 217 201 212 236 262 282 295 303
83 80 70 62 41 108 113 142 235 228 217 168 216 242 241 268 277 268 253 217 230 240 251 262 284 300 302
59 68 66 65 63 66 156 159 180 313 246 197 193 167 317 249 317 287 296 228 233 244 254 265 282 292 296
58 33 34 53 45 50 44 178 144 229 209 158 156 196 252 291 293 271 227 227 215 251 261 269 285 285 292
55 23 6 8 1 346 301 238 235 233 275 189 221 191 209 217 263 272 241 227 197 222 222 266 280 283 276
63 31 354 342 336 336 334 318 266 266 247 184 214 252 220 238 237 244 286 245 214 222 208 228 214 282 304
17 343 11 357 342 336 312 328 304 287 258 216 214 198 258 243 232 247 214 257 184 214 223 239 261 257 258
0 335 323 317 286 283 288 302 273 282 302 280 237 232 236 238 250 241 232 219 205 191 190 238 250 261 285
310 306 316 310 303 279 252 248 269 269 261 248 234 272 276 243 219 243 220 230 180 185 190 205 251 251 273
294 289 290 294 306 292 292 271 270 259 264 252 220 223 255 264 278 217 226 197 176 181 189 182 235 217 256